DLH457 KLAX-EDDF

Flight info

Callsign DLH457
Flight time N/A
Altitude 35000
Route OSHNN1 BEALE Q842 WINEN DCT OCS J202 DDY DCT TIMMR DCT HML DCT 55N090W 60N080W DCT TEFFO DCT BERUS/M080F350 DCT EMBOK DCT 63N050W 6230N04000W 61N030W 59N020W 58N015W DCT GOMUP/N0455F350 DCT GINGA DCT BRUCE DCT CLYDE DCT GOW DCT GOSAM DCT TLA DCT NATEB DCT ROXAT DCT GODOS DCT AMGOD DCT SOGPO DCT DIXAT DIXAT1A
Aircraft B748/H-SADE2E3GHIJ3J4J5M1P2RWXYZ/LB1D1

Departure

Time 2026-04-25 22:57
Airport Los Angeles International Airport (KLAX)

Arrival

Time N/A
Airport Frankfurt Main Airport (EDDF)
Time Latitude Longitude Altitude Speed Heading
2026-04-25 22:20 33.94177 -118.41097 104 ft 0 kts 82°
2026-04-25 22:21 33.94100 -118.41080 103 ft 0 kts 83°
2026-04-25 22:41 33.94098 -118.41100 104 ft 4 kts 83°
2026-04-25 22:41 33.94094 -118.41132 102 ft 4 kts 83°
2026-04-25 22:41 33.94091 -118.41164 101 ft 4 kts 95°
2026-04-25 22:42 33.94099 -118.41191 102 ft 4 kts 146°
2026-04-25 22:42 33.94117 -118.41198 102 ft 4 kts 173°
2026-04-25 22:42 33.94141 -118.41202 103 ft 1 kts 173°
2026-04-25 22:46 33.94123 -118.41199 102 ft 5 kts 173°
2026-04-25 22:46 33.94074 -118.41192 104 ft 10 kts 173°
2026-04-25 22:47 33.93999 -118.41181 103 ft 11 kts 173°
2026-04-25 22:47 33.93927 -118.41172 104 ft 10 kts 174°
2026-04-25 22:47 33.93863 -118.41162 104 ft 9 kts 173°
2026-04-25 22:47 33.93807 -118.41153 104 ft 8 kts 172°
2026-04-25 22:48 33.93784 -118.41139 105 ft 2 kts 142°
2026-04-25 22:48 33.93771 -118.41127 105 ft 1 kts 139°
2026-04-25 22:48 33.93770 -118.41124 105 ft 0 kts 127°
2026-04-25 22:48 33.93767 -118.41111 105 ft 7 kts 108°
2026-04-25 22:49 33.93770 -118.41043 105 ft 9 kts 84°
2026-04-25 22:49 33.93777 -118.40964 103 ft 16 kts 83°
2026-04-25 22:49 33.93794 -118.40823 105 ft 18 kts 83°
2026-04-25 22:49 33.93809 -118.40675 105 ft 19 kts 83°
2026-04-25 22:50 33.93821 -118.40549 107 ft 19 kts 84°
2026-04-25 22:50 33.93837 -118.40388 105 ft 19 kts 81°
2026-04-25 22:50 33.93853 -118.40240 104 ft 18 kts 83°
2026-04-25 22:50 33.93869 -118.40084 106 ft 19 kts 84°
2026-04-25 22:51 33.93886 -118.39929 105 ft 19 kts 82°
2026-04-25 22:51 33.93903 -118.39763 105 ft 21 kts 83°
2026-04-25 22:51 33.93922 -118.39578 105 ft 24 kts 84°
2026-04-25 22:51 33.93944 -118.39368 105 ft 27 kts 83°
2026-04-25 22:52 33.93966 -118.39147 106 ft 25 kts 83°
2026-04-25 22:52 33.93988 -118.38948 104 ft 22 kts 82°
2026-04-25 22:52 33.94005 -118.38774 104 ft 21 kts 83°
2026-04-25 22:52 33.94015 -118.38660 107 ft 20 kts 84°
2026-04-25 22:53 33.94029 -118.38521 105 ft 9 kts 81°
2026-04-25 22:53 33.94039 -118.38438 105 ft 12 kts 83°
2026-04-25 22:53 33.94052 -118.38312 105 ft 17 kts 83°
2026-04-25 22:53 33.94067 -118.38169 104 ft 18 kts 82°
2026-04-25 22:54 33.94078 -118.38068 103 ft 6 kts 83°
2026-04-25 22:54 33.94079 -118.38058 103 ft 1 kts 83°
2026-04-25 22:54 33.94079 -118.38057 103 ft 0 kts 83°
2026-04-25 22:55 33.94079 -118.38053 103 ft 2 kts 83°
2026-04-25 22:55 33.94075 -118.38027 103 ft 4 kts 112°
2026-04-25 22:56 33.94047 -118.38003 104 ft 6 kts 164°
2026-04-25 22:56 33.93999 -118.38005 104 ft 7 kts 205°
2026-04-25 22:56 33.93985 -118.38034 104 ft 6 kts 254°
2026-04-25 22:56 33.93971 -118.38151 104 ft 37 kts 262°
2026-04-25 22:57 33.93918 -118.38671 107 ft 97 kts 263°
2026-04-25 22:57 33.93815 -118.39695 108 ft 146 kts 263°
2026-04-25 22:57 33.93737 -118.40426 169 ft 164 kts 259°
2026-04-25 22:57 33.93611 -118.41775 733 ft 161 kts 261°
2026-04-25 22:58 33.93512 -118.43118 1223 ft 168 kts 263°
2026-04-25 22:58 33.93340 -118.44456 1614 ft 173 kts 260°
2026-04-25 22:58 33.93098 -118.45941 1667 ft 193 kts 251°
2026-04-25 22:58 33.92370 -118.47320 1935 ft 195 kts 231°
2026-04-25 22:59 33.91463 -118.48577 2053 ft 207 kts 230°
2026-04-25 22:59 33.90460 -118.49887 2166 ft 219 kts 224°
2026-04-25 22:59 33.89449 -118.50627 2376 ft 223 kts 204°
2026-04-25 22:59 33.87924 -118.50927 2564 ft 231 kts 180°
2026-04-25 23:00 33.86296 -118.50800 2755 ft 240 kts 180°
2026-04-25 23:00 33.84611 -118.50828 3255 ft 245 kts 186°
2026-04-25 23:00 33.82871 -118.50998 4063 ft 254 kts 187°
2026-04-25 23:00 33.81120 -118.51168 4947 ft 261 kts 186°
2026-04-25 23:01 33.79294 -118.51313 5869 ft 266 kts 186°
2026-04-25 23:01 33.77440 -118.51454 6834 ft 270 kts 186°
2026-04-25 23:01 33.75550 -118.51608 7752 ft 273 kts 186°
2026-04-25 23:01 33.73722 -118.51760 8588 ft 274 kts 186°
2026-04-25 23:02 33.71806 -118.51650 9413 ft 281 kts 166°
2026-04-25 23:02 33.70068 -118.50627 10183 ft 289 kts 144°
2026-04-25 23:02 33.68749 -118.48729 10758 ft 308 kts 119°
2026-04-25 23:02 33.67918 -118.46267 11297 ft 326 kts 113°
2026-04-25 23:03 33.67200 -118.43631 11783 ft 345 kts 112°
2026-04-25 23:03 33.66425 -118.40854 12604 ft 356 kts 114°